Theta_e
340 348 354 355 353 352 352 352 352 353 353 351 351 352 351 349 348 346 345 344 343 343 342 342 343 343 346 348 346 346 345 344 345 347 347 347 347 347 347 347 348 348 350
344 349 352 354 355 354 353 353 353 352 352 351 352 351 350 349 347 345 344 343 341 340 339 339 340 341 343 344 343 343 344 344 344 344 345 344 344 343 344 344 346 346 349
344 351 353 352 354 354 353 353 354 354 354 352 350 350 350 348 345 344 343 342 341 340 338 336 334 335 337 340 341 343 342 341 343 343 343 335 336 342 342 341 342 345 346
344 349 350 349 352 353 353 353 353 353 352 351 349 350 349 347 344 344 342 340 339 338 338 335 331 330 334 336 340 342 341 340 341 341 336 334 335 341 341 340 340 341 342
339 347 349 349 352 352 352 352 352 351 351 351 349 348 348 346 344 342 341 339 337 336 335 333 329 328 330 334 338 340 341 341 341 338 334 334 332 338 340 339 338 338 339
338 347 346 349 351 351 351 351 351 351 350 350 348 348 347 346 343 341 339 337 335 334 333 331 327 327 329 333 336 337 338 338 339 335 337 338 337 340 338 338 336 336 337
335 346 346 347 350 350 350 351 350 349 349 349 347 347 347 345 343 340 339 336 335 333 332 329 325 324 326 329 332 333 333 331 329 330 332 331 334 339 337 336 335 334 334
337 342 346 341 341 345 347 347 347 347 347 346 346 347 346 345 342 339 338 336 334 333 331 329 325 322 322 323 324 325 326 327 329 327 327 325 335 336 334 332 332 332 332
337 339 340 344 342 335 341 340 343 345 345 345 345 345 344 342 340 340 338 336 335 332 331 328 324 317 318 317 316 317 320 322 317 322 321 320 331 333 331 328 328 329 330
317 322 330 335 339 340 343 336 338 340 341 340 341 339 336 336 335 335 333 335 334 332 331 328 324 316 313 312 313 317 318 316 309 311 311 315 325 329 328 326 326 326 328
312 312 315 319 333 336 339 338 336 338 337 335 335 332 330 334 332 331 329 334 334 332 330 328 324 319 312 314 314 315 312 302 303 304 304 316 319 322 325 326 325 325 327
305 307 309 311 314 327 337 338 340 341 340 339 339 335 337 336 333 330 327 329 331 330 330 326 324 323 320 309 306 309 302 301 301 301 303 313 315 318 320 321 325 324 325
304 309 311 311 311 314 331 335 339 340 337 336 336 335 335 333 330 329 327 326 324 323 325 325 321 319 315 311 309 305 304 301 300 301 306 310 311 315 318 319 321 325 325
306 309 312 313 313 311 327 336 335 334 334 331 332 333 334 332 332 330 327 326 323 323 320 321 320 318 315 313 311 309 307 305 303 301 302 309 309 311 314 316 319 321 324
306 309 310 312 314 314 323 335 330 328 328 328 328 327 328 328 329 330 327 326 323 321 318 317 317 314 314 315 313 312 309 306 304 303 302 307 308 308 310 313 316 319 321
307 306 309 315 317 316 326 326 324 322 320 321 322 324 325 327 326 324 323 321 319 319 318 314 313 312 311 311 312 312 310 308 306 305 304 304 310 306 308 311 314 315 317
304 307 312 316 317 316 316 317 317 316 316 315 317 318 319 319 317 317 316 315 315 315 314 312 310 310 310 309 309 310 308 310 309 308 307 306 305 308 307 309 310 311 312
301 305 310 311 309 309 311 312 311 310 311 313 314 314 315 315 315 313 311 310 311 311 310 309 308 309 308 305 303 304 304 306 308 307 302 301 301 301 304 308 308 309 310
301 305 307 306 305 305 305 305 306 307 308 308 308 308 309 309 309 307 305 305 306 306 306 306 303 301 301 300 300 299 301 303 305 302 299 299 299 300 299 306 308 307 308
303 304 306 304 303 302 302 303 303 302 301 301 301 302 303 305 306 304 303 303 303 301 300 300 302 301 298 297 299 301 301 301 300 299 299 299 300 300 299 299 299 301 308
302 303 304 304 304 304 303 302 300 297 296 294 295 296 296 298 299 299 298 299 297 296 295 296 298 298 296 297 296 297 300 299 298 298 298 297 297 296 298 296 298 296 299
300 302 303 305 305 305 303 301 298 293 292 292 292 292 293 293 293 293 292 292 291 290 290 290 290 294 293 292 292 293 292 295 294 298 297 296 292 291 292 291 292 290 294
298 299 301 302 303 300 298 296 293 292 291 289 288 289 290 290 290 290 290 290 289 289 288 287 287 287 286 288 288 290 287 286 288 293 289 289 287 287 288 289 289 289 293
296 298 299 300 299 298 296 294 292 290 287 287 287 287 288 289 288 289 289 288 288 287 286 286 287 285 285 283 286 288 285 284 284 282 284 285 287 286 286 287 287 288 290
294 294 294 294 294 294 293 291 290 288 288 287 287 286 286 286 287 287 286 286 286 286 285 285 284 284 284 283 283 283 283 283 282 279 277 280 283 284 285 286 286 286 289
290 290 290 290 290 291 291 290 288 287 287 286 285 285 284 284 285 285 285 284 284 284 284 283 283 283 283 282 282 282 282 281 279 279 277 277 278 281 284 284 285 287 288
Wind_Speed
9 11 12 12 13 12 11 11 11 10 11 12 12 12 15 15 15 15 15 15 14 15 15 14 15 13 14 15 15 15 13 12 11 13 16 18 18 17 19 19 15 12 15
15 13 12 12 12 11 10 10 9 9 10 11 12 14 13 15 15 15 15 14 14 15 15 15 14 13 13 14 13 12 12 11 8 7 11 16 15 16 17 17 16 14 18
13 13 11 11 12 12 11 10 9 8 9 10 9 12 14 15 14 15 15 14 15 15 15 14 13 13 12 12 11 11 11 9 10 10 7 7 9 15 16 16 16 16 16
11 12 10 10 12 13 11 8 7 7 7 7 9 12 14 14 14 15 15 14 14 14 15 15 14 14 13 13 11 11 9 8 9 10 7 7 9 15 16 16 17 17 15
7 11 12 12 13 13 12 9 7 7 8 7 9 11 14 15 14 14 14 14 14 14 15 15 15 15 14 13 13 12 11 11 11 8 8 6 6 12 15 16 14 15 14
6 10 12 12 11 14 12 9 6 6 8 7 9 12 13 15 15 13 13 14 15 14 15 15 16 15 14 14 13 11 12 14 14 7 9 11 10 13 14 14 14 14 13
4 10 8 9 5 11 11 10 7 5 6 7 8 10 12 14 15 13 13 14 14 15 14 15 15 15 14 14 14 14 14 15 8 10 9 8 10 13 13 14 14 14 13
7 6 8 7 6 5 5 8 8 7 8 8 9 10 11 13 14 13 13 14 15 14 14 14 14 14 14 14 13 13 13 12 6 6 9 8 13 13 12 13 12 12 12
6 4 6 4 7 6 3 4 7 7 7 8 9 10 10 11 12 13 14 14 14 14 14 13 13 13 13 13 12 11 11 13 7 6 9 6 12 11 11 12 11 11 11
8 8 7 6 6 5 3 8 10 8 8 7 8 8 11 12 11 11 11 13 14 13 13 13 13 11 12 12 12 11 11 12 7 7 6 5 12 11 11 11 11 10 9
6 6 5 6 3 4 4 4 5 9 8 7 7 10 10 6 8 8 9 11 14 13 11 11 10 8 6 8 9 10 10 4 6 5 4 11 12 11 11 11 10 9 9
6 4 4 4 4 1 3 2 2 6 5 5 6 6 4 6 6 6 7 6 10 12 10 8 7 7 8 4 4 7 4 5 5 4 4 12 13 13 12 11 11 9 7
3 5 5 4 3 3 3 2 1 3 3 3 3 3 3 5 5 4 3 3 2 8 4 4 3 4 5 4 4 4 4 5 3 3 5 10 12 13 12 12 12 11 9
5 6 7 7 4 4 2 2 2 5 6 5 6 7 5 3 4 4 3 4 4 3 5 4 3 4 5 5 3 3 4 3 2 2 2 6 7 9 11 12 12 12 12
5 7 7 7 6 3 4 4 5 5 6 7 6 6 4 4 5 5 4 4 4 4 4 3 4 4 4 5 3 4 3 1 3 2 1 3 4 7 9 10 11 12 12
7 6 6 6 8 0 5 7 6 6 7 7 6 6 7 4 4 5 6 5 4 4 4 4 4 4 3 4 4 5 3 3 2 2 2 2 1 4 8 11 12 12 12
5 5 7 5 10 9 9 8 8 7 7 7 6 10 9 8 8 8 6 6 5 4 5 4 4 3 3 3 4 4 5 6 4 4 4 4 5 6 7 10 13 13 13
5 5 6 7 8 10 9 8 7 7 7 7 8 7 11 10 10 8 7 6 6 5 4 5 4 4 5 5 4 4 4 4 6 6 6 6 5 5 8 13 14 14 14
5 5 6 7 9 10 9 9 9 10 8 7 8 7 9 10 11 9 7 6 5 5 5 3 4 4 3 4 5 4 4 3 4 6 7 7 6 6 5 11 14 14 17
5 5 7 7 9 9 7 8 8 9 9 8 7 7 8 6 7 5 5 6 5 6 6 4 5 5 4 4 4 4 2 3 5 5 6 5 6 7 6 7 5 7 17
6 6 6 8 7 6 6 7 7 8 8 8 8 9 9 8 9 7 6 7 7 8 6 7 4 6 6 8 4 5 5 8 6 5 5 5 8 8 7 9 5 7 7
6 6 5 7 6 4 4 5 6 6 8 7 7 8 8 9 9 9 8 7 7 7 9 8 7 4 4 8 3 1 4 4 7 5 5 5 8 5 6 11 7 12 7
6 6 5 5 6 9 10 9 9 8 6 7 6 6 7 8 8 9 8 7 7 5 7 7 7 8 5 5 11 4 4 3 5 3 6 6 7 5 6 7 8 12 7
6 6 6 6 8 7 8 8 8 7 9 4 6 5 6 7 8 8 8 8 8 5 8 6 7 6 5 6 4 6 5 1 2 5 5 4 10 7 9 5 9 7 7
6 6 6 7 5 6 8 9 10 11 8 7 6 8 7 7 8 8 8 8 8 6 6 7 7 7 5 4 4 3 4 3 4 1 4 8 4 5 4 9 7 5 6
7 7 7 8 6 6 8 8 10 12 11 8 6 6 5 4 5 7 8 7 7 7 6 6 6 8 6 6 5 5 3 3 3 2 3 4 6 5 8 6 7 5 5
Wind_Direction
129 133 139 136 129 122 114 108 102 102 107 110 111 108 106 91 84 79 76 72 68 66 60 58 55 45 48 52 54 51 49 52 58 65 71 61 50 47 42 38 44 46 54
124 138 142 138 133 128 119 116 117 120 124 128 122 123 105 96 88 82 78 73 68 64 60 55 52 48 42 45 46 46 41 23 21 66 94 64 51 48 48 42 40 43 46
128 127 144 142 141 133 128 130 130 133 137 135 134 115 111 98 91 85 77 71 65 60 56 54 50 45 44 44 42 39 34 6 348 349 9 75 64 48 52 48 42 40 40
122 136 148 155 150 141 133 133 135 137 140 135 120 119 107 102 95 90 82 72 61 57 53 50 47 44 42 39 39 35 25 351 332 342 82 77 61 50 45 46 46 41 38
120 149 141 158 155 144 138 143 156 164 122 121 124 120 116 109 99 92 84 74 62 56 52 49 47 46 43 40 40 29 13 355 339 331 63 67 71 45 42 40 42 41 37
139 110 133 148 167 144 145 152 170 150 120 122 120 122 122 118 107 95 85 76 72 67 57 52 49 46 45 45 43 34 14 1 339 49 53 49 59 43 36 35 36 37 35
132 113 128 120 165 144 152 156 167 157 142 126 122 124 130 120 109 101 89 81 76 70 61 57 55 52 49 46 38 26 12 5 355 39 62 51 28 43 33 32 30 30 31
81 67 124 112 73 71 155 169 178 177 158 144 134 127 123 118 113 107 102 91 84 78 69 63 58 56 53 49 41 27 12 1 33 49 55 41 20 25 29 29 31 27 30
92 116 83 154 163 156 160 198 186 181 170 156 148 139 125 118 114 112 109 100 94 87 79 68 59 59 55 51 43 30 10 359 30 37 55 33 16 24 27 27 26 27 30
33 33 32 41 38 6 191 192 178 178 178 168 156 147 134 129 122 117 115 119 110 96 87 75 65 66 62 51 35 16 15 22 26 48 48 28 22 21 23 26 24 24 29
81 57 39 10 40 0 3 86 139 149 153 143 138 146 137 142 141 152 138 136 122 109 100 89 82 80 90 69 43 28 38 12 34 51 43 23 17 17 17 15 19 21 26
44 72 48 13 354 311 290 351 275 159 153 160 164 163 177 152 131 112 106 91 113 112 104 82 62 54 44 54 35 36 25 19 32 49 46 27 14 11 10 7 2 8 15
354 44 27 0 346 308 259 231 7 83 102 134 160 161 158 108 124 123 115 113 115 126 131 105 63 93 79 69 56 65 48 39 39 37 48 38 15 7 4 3 359 353 353
19 32 21 352 306 260 234 171 62 54 61 68 53 54 55 115 143 118 102 100 80 42 69 45 44 44 94 95 78 84 97 91 69 39 105 67 31 7 0 359 358 355 350
27 31 2 328 310 237 214 103 83 86 80 75 66 52 61 66 81 98 102 91 78 79 80 98 84 61 31 19 44 24 3 50 118 132 109 118 51 17 5 360 358 356 353
51 24 349 337 272 43 83 83 80 72 72 75 56 52 44 64 80 89 89 84 71 59 50 48 33 56 45 18 4 1 349 327 332 12 11 19 35 29 19 7 3 356 352
54 26 14 12 40 58 69 73 78 77 79 71 71 57 55 59 59 63 64 54 47 51 51 58 45 49 39 15 4 356 347 343 331 14 19 23 24 36 12 18 4 353 348
69 55 49 62 66 67 71 78 79 71 72 64 67 63 63 66 68 71 72 58 44 46 40 46 23 23 18 10 354 346 342 335 335 42 40 29 25 15 12 12 4 356 357
85 76 77 77 78 79 76 80 79 77 75 74 67 63 64 63 66 73 71 67 55 63 53 54 41 55 28 354 332 323 311 313 32 53 58 56 37 28 18 12 10 13 358
96 91 94 91 90 92 94 95 90 77 68 60 54 50 49 58 69 77 79 69 56 53 37 25 38 48 31 328 303 301 262 74 61 57 48 47 39 28 17 17 6 356 356
99 110 108 116 121 131 123 109 94 93 81 67 59 54 51 54 57 58 53 61 53 57 41 32 38 61 17 357 16 351 49 72 25 57 63 51 39 22 14 9 4 4 346
123 121 127 139 157 146 81 81 92 98 83 82 71 60 54 56 56 65 60 58 58 56 42 32 33 37 39 23 33 280 21 342 18 48 63 36 28 20 18 3 11 356 339
128 133 137 121 99 94 102 103 104 108 96 84 63 71 53 59 60 65 63 63 57 51 56 39 34 35 43 14 35 66 27 357 334 353 34 36 20 11 1 353 356 346 332
125 121 107 110 120 124 132 135 136 111 111 96 97 83 69 60 64 62 66 70 67 54 51 45 39 44 53 37 19 19 49 82 7 327 344 352 11 358 340 347 337 327 333
137 128 118 109 104 104 109 113 113 116 119 116 104 93 78 63 62 63 63 61 63 58 56 58 46 39 46 57 49 1 4 351 61 13 301 326 338 355 338 332 305 305 313
132 129 128 128 133 121 113 110 115 122 124 121 111 100 87 74 63 66 68 66 67 60 56 51 54 52 43 52 44 35 45 15 344 359 316 309 306 314 323 305 315 314 311